This is the latest recevied weather packets stored in our database for station/object SP1BMW-13. If no packets are shown the sender has not sent any weather packets the latest 10 day(s).
| Time | Temp. | Humidity | Pressure | Rain* | Wind** | Luminosity | Snow |
|---|---|---|---|---|---|---|---|
| 1788097478 | 27.22° C | 46% | 1007.6 hPa | 0 mm | 1.34 m/s, 296° | 485 W/m² | - |
| 1788097421 | 26.67° C | 46% | 1007.6 hPa | 0 mm | 1.79 m/s, 283° | 485 W/m² | - |
| 1788097358 | 26.67° C | 46% | 1007.8 hPa | 0 mm | 0.89 m/s, 279° | 487 W/m² | - |
| 1788097297 | 26.67° C | 46% | 1007.8 hPa | 0 mm | 3.13 m/s, 245° | 493 W/m² | - |
| 1788097239 | 26.67° C | 46% | 1007.7 hPa | 0 mm | 2.24 m/s, 273° | 500 W/m² | - |
| 1788097178 | 26.67° C | 46% | 1007.6 hPa | 0 mm | 1.34 m/s, 271° | 513 W/m² | - |
| 1788097117 | 26.67° C | 48% | 1007.9 hPa | 0 mm | 2.24 m/s, 264° | 523 W/m² | - |
| 1788097057 | 26.67° C | 48% | 1007.7 hPa | 0 mm | 0.45 m/s, 318° | 513 W/m² | - |
| 1788096998 | 26.67° C | 47% | 1007.9 hPa | 0 mm | 1.34 m/s, 166° | 370 W/m² | - |
| 1788096938 | 26.67° C | 47% | 1007.8 hPa | 0 mm | 3.13 m/s, 274° | 529 W/m² | - |
| 1788096883 | 26.67° C | 47% | 1007.6 hPa | 0 mm | 2.24 m/s, 272° | 445 W/m² | - |
| 1788096818 | 26.67° C | 48% | 1007.8 hPa | 0 mm | 1.79 m/s, 299° | 514 W/m² | - |
| 1788096757 | 26.67° C | 48% | 1007.8 hPa | 0 mm | 1.79 m/s, 211° | 513 W/m² | - |
| 1788096698 | 26.67° C | 50% | 1007.6 hPa | 0 mm | 0.45 m/s, 95° | 512 W/m² | - |
| 1788096638 | 26.67° C | 49% | 1007.8 hPa | 0 mm | 1.79 m/s, 199° | 520 W/m² | - |
| 1788096577 | 26.11° C | 49% | 1007.8 hPa | 0 mm | 2.24 m/s, 274° | 524 W/m² | - |
| 1788096518 | 26.11° C | 49% | 1007.8 hPa | 0 mm | 2.24 m/s, 224° | 541 W/m² | - |
| 1788096457 | 26.11° C | 50% | 1007.7 hPa | 0 mm | 0.45 m/s, 306° | 551 W/m² | - |
| 1788096400 | 26.11° C | 50% | 1007.7 hPa | 0 mm | 0.89 m/s, 197° | 568 W/m² | - |
| 1788096340 | 26.11° C | 50% | 1007.8 hPa | 0 mm | 3.13 m/s, 250° | 588 W/m² | - |
| 1788096278 | 25.56° C | 51% | 1007.8 hPa | 0 mm | 0.89 m/s, 256° | 602 W/m² | - |
| 1788096217 | 25.56° C | 51% | 1007.8 hPa | 0 mm | 1.34 m/s, 146° | 296 W/m² | - |
| 1788096157 | 25.56° C | 50% | 1007.6 hPa | 0 mm | 0.89 m/s, 350° | 206 W/m² | - |
| 1788096098 | 25.56° C | 50% | 1007.7 hPa | 0 mm | 0.89 m/s, 194° | 302 W/m² | - |
| 1788096037 | 25.56° C | 50% | 1007.7 hPa | 0 mm | 0.89 m/s, 310° | 277 W/m² | - |
* Rain latest hour (hover to see other rain measurements)
** Current wind speed in m/s (hover to see current wind gust speed)